Regional Weather Roundup
Issued by NWS

Home | Current Version | Previous Version | Text Only | Print | Product List | Glossary Off
Versions: 1 2 3 4 5 6 7 8 9 10 11 12 13 14 15 16 17 18 19 20 21 22 23 24 25 26 27 28 29 30 31 32 33 34 35 36 37 38 39 40 41 42 43 44 45 46 47 48 49 50

000
ASUS44 KMEG 170900
RWRTN
TENNESSEE HOURLY STATE WEATHER ROUNDUP
NATIONAL WEATHER SERVICE MEMPHIS TN
300 AM CST TUE JAN 17 2017

TNZ002-004-019-021-049-052-054-088>092-171000-
WEST TENNESSEE

CITY           SKY/WX    TMP DP  RH WIND       PRES   REMARKS
MEMPHIS INTL   LGT RAIN  59  59 100 W13G21    30.01R FOG
NWS MEMPHIS      N/A     62 N/A N/A MISG        N/A
JACKSON        LGT RAIN  66 N/A N/A SW13      29.99S
DYERSBURG      CLOUDY    61  57  88 W9        29.96F
PARIS          CLOUDY    61  61 100 SW10      29.97S
$$

TNZ008-025-027-028-033-062-065-066-171000-
NORTH MIDDLE TENNESSEE

CITY           SKY/WX    TMP DP  RH WIND       PRES   REMARKS
NASHVILLE      CLOUDY    65  57  75 S17G24    30.02F
CLARKSVILLE    LGT RAIN  62  58  86 SW7       29.97S
SMYRNA         LGT RAIN  64  59  83 S9        30.04S
CROSSVILLE     CLOUDY    58  52  80 S12G25    30.11F
$$

TNZ061-075-076-078-094-096-097-171000-
SOUTH MIDDLE TENNESSEE

CITY           SKY/WX    TMP DP  RH WIND       PRES   REMARKS
TULLAHOMA      CLOUDY    63  55  77 S14       30.09F
WINCHESTER     CLOUDY    64  55  72 S8        30.11F
COLUMBIA       CLOUDY   N/A N/A N/A S10       30.02F
SHELBYVILLE    MOCLDY    66  61  82 S22       30.07S
$$

TNZ017-018-042-046-047-171000-
NORTHEAST TENNESSEE

CITY           SKY/WX    TMP DP  RH WIND       PRES   REMARKS
TRI CITIES     CLOUDY    52  48  86 CALM      30.14F
$$

TNZ012-013-036-069-073-074-171000-
CENTRAL EAST TENNESSEE

CITY           SKY/WX    TMP DP  RH WIND       PRES   REMARKS
KNOXVILLE      CLOUDY    56  52  86 S5        30.12F
OAK RIDGE      CLOUDY    57  53  86 VRB3      30.14F
GATLINBURG     MOCLDY    50  50 100 W5        30.12S
$$

TNZ083-085-099-171000-
SOUTHEAST TENNESSEE

CITY           SKY/WX    TMP DP  RH WIND       PRES   REMARKS
CHATTANOOGA    CLOUDY    58  53  84 S6        30.16F
$$

SKY/WX REPORTED AS FAIR MEANS FEW OR NO CLOUDS BELOW
12 THOUSAND FEET.




USA.gov is the U.S. government's official web portal to all federal, state and local government web resources and services.